Location: Milton Keynes
(52.0316°N, 0.7531°W)
Time: 19:08:31
(UTC+00:00)

Envisat - Pass Details

Date: 31 January 2019
Orbit: 764 x 766 km, 98.2° (Epoch: 20 February)

Event Time Altitude Azimuth Distance (km) Brightness Sun altitude
Rises 19:34:39 0° 196° (SSW) 3,222 6.4 -25.5°
Reaches altitude 10° 19:37:14 10° 207° (SSW) 2,301 5.7 -25.9°
Maximum altitude 19:41:36 29° 267° (W) 1,394 4.9 -26.6°
Drops below altitude 10° 19:46:00 10° 327° (NNW) 2,315 5.9 -27.3°
Sets 19:48:38 0° 338° (NNW) 3,246 6.6 -27.7°
